User: anonymous   Login
Location: Whispering Pines Observatory
(39.4020°N, 104.7430°W)
Time: 06:30:31
(UTC-06:00)
Language:

MOS 1 Rocket - Orbit

View from above orbital plane
View from above orbital plane
View from above satellite
View from above satellite

Ground track
Ground track

The orbit data is extracted from the following two-line orbital elements,

1 17528U 87018B   15115.15269978  .00000509  00000-0  12205-3 0  9994
2 17528 097.4207 153.5701 0152000 235.5631 193.3884 14.50383249486215
Epoch (UTC): 25 April 2015 03:39:53
Eccentricity: 0.0152000
inclination: 97.4207°
perigee height: 616 km
apogee height: 832 km
right ascension of ascending node: 153.5701°
argument of perigee: 235.5631°
revolutions per day: 14.50383249
mean anomaly at epoch: 193.3884°
orbit number at epoch: 48621

The dashed part of the orbit path shows where the satellite is in the earth's shadow,  

DLR